{"data":{"norad_id":45223,"intl_designator":"2020-012AX","name":"STARLINK-1212","alt_names":[],"object_type":"PAYLOAD","status":"ACTIVE","operator":null,"country":"US","launch_date":"2020-02-17","launch_site_code":"AFETR","launch_vehicle":null,"mission":null,"orbit_class":"UNKNOWN","rcs_meters":null,"size_class":null,"mass_kg":null,"dimensions":null,"purposes":["comms"],"wikipedia_slug":null,"has_3d_model":false,"image_url":null,"decayed_at":null,"tle_current":{"epoch":"2026-05-25T01:10:29.970336Z","epoch_age_seconds":81521,"freshness":"FRESH","line1":"1 45223U 20012AX  26145.04895799  .00048300  00000+0  47573-3 0  9993","line2":"2 45223  53.0412 338.3786 0003495 106.2310 253.9089 15.65501168347553","mean_motion":15.65501168,"eccentricity":0.0003495,"inclination_deg":53.0412,"raan_deg":338.3786,"arg_perigee_deg":106.231,"mean_anomaly_deg":253.9089,"bstar":0.00047573,"rev_number":34755,"period_min":91.983323259967,"perigee_km":369.43868989711,"apogee_km":374.15689431679,"semimajor_km":6749.934792107,"source":"CELESTRAK","updated_at":"2026-05-25T13:38:16.384446Z"}}}